Weather in Kremlevo

Russia / Ryazan Oblast     53°47′53″N   39°17′53″E
temp.,
°C
wind,
m/s
gust,
m/s
humid.,
%
clouds,
%
prec.,
mm/h
press.,
hPa
HPBL,
m
7 march, sun
sun700:00−13w44930 0.0 101773
03:00−13wsw48920 0.0 1015127
06:00−12sw6129132 0.0 1013236
09:00−8sw9188266 0.0 1009691
12:00−4sw111881100 0.1 10041068
15:00−3sw121993100 1.1 10001209
18:00−2sw111991100 0.9 9961138
21:00−3nw71586100 3.1 995952
8 march, mon
mon800:00−6w7168270 0.2 998584
03:00−8wsw6158434 0.2 1000368
06:00−10wsw612898 0.0 1000277
09:00−7wsw6129154 0.0 1000571
12:00−5w71087100 0.0 1001875
15:00−5w71183100 0.1 10021230
18:00−9wnw498557 0.2 1005167
21:00−12wnw459128 0.2 100883
9 march, tue
tue900:00−14nw34940 0.0 101033
03:00−15nw349625 0.0 101144
06:00−15nw339493 0.0 101348
09:00−13nw379595 0.0 1014248
12:00−11nnw469095 0.0 1015499
15:00−11nw468897 0.1 1017637
18:00−14nw349399 0.0 101744
21:00−17nw349467 0.0 102038
10 march, wed
wed1000:00−19nnw349734 0.0 102153
03:00−22nnw349718 0.0 102347
06:00−24nw34970 0.0 102557
09:00−23nnw35950 0.0 1026177
12:00−19nnw34892 0.0 1027294
15:00−16nnw24853 0.0 1027334
18:00−20nw22921 0.0 102720
21:00−22nw12911 0.0 102920
11 march, thu
thu1100:00−23wsw01910 0.0 102920
03:00−23ssw22870 0.0 103020
06:00−23ssw238636 0.0 103020
09:00−18s368365 0.0 1029155
12:00−13s4794100 0.1 1029291
15:00−10ssw589199 0.2 1028403
18:00−12s499360 0.0 1027175
21:00−13s5109330 0.0 1026181